Location: Mount Kobau Star Party
(49.1167°N, 119.7333°W)
Time: 11:07:44
(UTC-07:00)

ARIANE 6 FM1 Upper Stage - Pass Details

Date: 16 April 2026
Orbit: 526 x 601 km, 62.0° (Epoch: 18 May)

Event Time Altitude Azimuth Distance (km) Brightness Sun altitude
Rises 20:52:43 0° 265° (W) 2,715 7.2 -9.8°
Reaches altitude 10° 20:55:19 10° 280° (W) 1,810 6.6 -10.2°
Maximum altitude 20:58:35 23° 334° (NNW) 1,177 5.1 -10.6°
Drops below altitude 10° 21:01:50 10° 28° (NNE) 1,788 5.3 -11.1°
Sets 21:04:23 0° 43° (NE) 2,674 6.0 -11.4°
